Flag for Hungary Weather past 2 weeks in Budapest, Hungary

Now
63 °F

Broken clouds.


Feels Like: 63 °F
Forecast: 41 / 62 °F
Wind: 3 mph from North

Location: Ferenc Liszt International Airport

Current Time: Apr 28, 2015 at 1:20:16 PM

Latest Report: Apr 28, 2015 at 1:00 PM


Visibility: N/A

Pressure: 29.68 "Hg

Humidity: 68%

Dew point: 52 °F

Location of BudapestLocation

Historic Weather in Budapest — Graph

°F

Budapest temperature yesterday

Maximum temperature yesterday: 77 °F (at 3:30 PM)
Minimum temperature yesterday: 45 °F (at 4:00 AM)
Average temperature yesterday: 62 °F

Past Weeks' High & Low Weather Summary

 TemperatureHumidityPressure
High81 °F (Apr 16, 3:00 PM)100% (Apr 17, 10:30 PM)30.36 "Hg (Apr 17, 10:30 PM)
Low28 °F (Apr 20, 2:00 AM)17% (Apr 16, 3:30 PM)29.59 "Hg (Apr 28, 4:30 AM)
Average56 °F53%30.00 "Hg
* Reported Apr 13 12:00 Noon — Apr 28 12:00 Noon, Budapest, Weather by CustomWeather, © 2015

Note: Actual official high and low records may vary slightly from our data, if they occured in-between our weather recording intervals... More about our weather records

Advertising

Budapest weather history for previous 24 hours

 ConditionsComfort  
Time TempWeatherWind HumidityBarometerVisibility
12:00 PM
Tue, Apr 28
61 °FPartly sunny.3 mph77%29.68 "HgN/A
11:30 AM59 °FLight rain. Partly sunny.3 mph88%29.68 "HgN/A
11:00 AM59 °FPartly sunny.5 mph88%29.68 "HgN/A
10:30 AM57 °FSprinkles. Broken clouds.3 mph94%29.68 "HgN/A
10:00 AM57 °FSprinkles. Broken clouds.5 mph94%29.68 "HgN/A
9:30 AM55 °FSprinkles. Broken clouds.5 mph94%29.65 "HgN/A
9:00 AM57 °FSprinkles. Broken clouds.8 mph82%29.65 "HgN/A
8:30 AM59 °FSprinkles. Partly sunny.10 mph72%29.65 "HgN/A
8:00 AM57 °FSunny.7 mph77%29.62 "Hg10 mi
7:30 AM57 °FSunny.6 mph88%29.62 "Hg10 mi
7:00 AM55 °FSunny.5 mph94%29.62 "Hg10 mi
6:30 AM55 °FPassing clouds.5 mph94%29.62 "HgN/A
6:00 AM54 °FClear.8 mph94%29.59 "Hg10 mi
5:30 AM55 °FClear.8 mph82%29.62 "Hg10 mi
5:00 AM57 °FPassing clouds.2 mph82%29.59 "HgN/A
4:30 AM55 °FPassing clouds.5 mph88%29.59 "HgN/A
4:00 AM57 °FClear.5 mph82%29.62 "Hg10 mi
3:30 AM57 °FClear.7 mph82%29.62 "Hg10 mi
3:00 AM55 °FClear.7 mph88%29.65 "Hg10 mi
2:30 AM52 °FClear.2 mph94%29.62 "Hg10 mi
2:00 AM52 °FClear.2 mph82%29.65 "Hg10 mi
1:30 AM55 °FClear.6 mph77%29.65 "Hg10 mi
1:00 AM55 °FClear.6 mph77%29.65 "Hg10 mi
12:30 AM54 °FClear.7 mph82%29.65 "Hg10 mi
12:00 AM57 °FClear.7 mph67%29.65 "Hg10 mi
11:30 PM
Mon, Apr 27
59 °FClear.6 mph68%29.65 "Hg10 mi
11:00 PM57 °FClear.5 mph72%29.68 "Hg10 mi
10:30 PM59 °FClear.2 mph68%29.68 "Hg10 mi
10:00 PM61 °FClear.7 mph63%29.68 "Hg10 mi
9:30 PM64 °FClear.5 mph56%29.68 "Hg10 mi
9:00 PM64 °FClear.5 mph56%29.68 "Hg10 mi
8:30 PM68 °FSunny.3 mph46%29.68 "Hg10 mi
8:00 PM72 °FSunny.7 mph41%29.68 "Hg10 mi
7:30 PM73 °FPartly sunny.8 mph36%29.68 "HgN/A
7:00 PM73 °FSunny.9 mph36%29.68 "Hg10 mi
6:30 PM73 °FPassing clouds.9 mph36%29.68 "HgN/A
6:00 PM75 °FSunny.13 mph34%29.71 "Hg10 mi
5:30 PM75 °FPassing clouds.15 mph34%29.71 "HgN/A
5:00 PM75 °FPassing clouds.15 mph34%29.71 "HgN/A
4:30 PM77 °FPassing clouds.16 mph32%29.71 "HgN/A
4:00 PM75 °FPassing clouds.14 mph34%29.74 "HgN/A
3:30 PM77 °FSunny.17 mph32%29.74 "Hg10 mi
3:00 PM75 °FPassing clouds.14 mph34%29.74 "HgN/A
2:30 PM75 °FSunny.18 mph34%29.77 "Hg10 mi
2:00 PM75 °FPassing clouds.15 mph36%29.77 "HgN/A
1:30 PM73 °FPassing clouds.17 mph36%29.77 "HgN/A
1:00 PM75 °FPassing clouds.17 mph36%29.77 "HgN/A
Weather by CustomWeather, © 2015

See weather overviewHow to use our weather pages